Location: ?????????
(38.5999°N, 22.7695°E)
Time: 13:08:57
(UTC+00:00)

SL-27 R/B - Pass Details

Date: 23 May 2024
Orbit: 330 x 354 km, 74.7° (Epoch: 13 June)

Event Time Altitude Azimuth Distance (km) Brightness Sun altitude
Exits shadow 01:10:20 34° 331° (NNW) 576 3.1 -19.3°
Drops below altitude 10° 01:12:17 10° 4° (N) 1,267 5.4 -19.1°
Sets 01:14:17 0° 11° (N) 2,107 6.8 -18.8°
